sat.trackr.live / text

‹ back to catalog

STARLINK-4520

NORAD 53400 · 2022-097N

PAYLOAD ACTIVE UNKNOWN

§ Identity

Operator
Country
US
Launch date
2022-08-10
Launch site
AFETR
Launch vehicle
Mass (kg)
RCS (m²)

Purposes: comms

External: N2YO · Heavens-Above · Gunter

§ Orbital elements

Epoch: 2026-05-24T23:26:34.694016Z

Period
95.44 min
Inclination
53.2130°
Eccentricity
0.0000953
Mean motion
15.08836106 rev/d
Perigee alt
539.1 km
Apogee alt
540.4 km
Semi-major
6,917.9 km
B*
4.3810e-5
RAAN
141.6549°
Arg perigee
74.9124°
Mean anomaly
285.1974°
Rev number
21,003

§ Raw data

STARLINK-45201 53400U 22097N   26144.97679044  .00000409  00000+0  43810-4 0  99972 53400  53.2130 141.6549 0000953  74.9124 285.1974 15.08836106210032

JSON: /api/v1/satellites/53400 · /tle

For live sub-satellite position, see the globe view (requires WebGL).

§ Visibility from observer

Set your observer location to see the next 7 days of passes ≥ 10°. The values pass through the URL so the page stays shareable.

No JS? Fill the form by hand. The geolocation button needs JavaScript.